Tracking 28126 objects as of 2-Oct-2023
HD Live streaming from Space Station
objects crossing your sky now

SL-14 R/B

Track SL-14 R/B now!
10-day predictions


NORAD ID: 19196
Int'l Code: 1988-046B
Perigee: 1,491.8 km
Apogee: 1,523.8 km
Inclination: 73.6 °
Period: 116.0 minutes
Semi major axis: 7878 km
RCS: 5.4646 m2 (large)
Launch date: May 30, 1988
Source: Commonwealth of Independent States (former USSR) (CIS)
Launch site: PLESETSK MISSILE AND SPACE COMPLEX (PKMTR)

Note: This is a ROCKET BODY
Your satellite tracking list
Your tracking list is empty




NASA's NSSDC Master Catalog

Two Line Element Set (TLE):
1 19196U 88046B   23274.93390322  .00000002  00000-0  14302-3 0  9996
2 19196  73.6019 333.9604 0020303 158.9745  14.3057 12.41399694601554
Source of the keplerian elements: AFSPC